Temperature
9 10 10 10 10 11 11 11 11 11 10 10 11 11 11 10 10 10 10 9 9 8 8 7 8 8 8 8 9 9 9 9 9 10 10 9 10 10 10 10 10 10 10 10
10 9 9 9 9 9 10 10 11 10 9 10 10 11 11 11 10 9 9 9 8 8 7 7 7 7 8 8 8 8 8 9 9 9 9 9 9 9 9 9 9 9 9 9
10 9 8 8 9 9 9 10 10 10 9 9 9 11 11 11 10 9 9 8 8 7 7 6 6 7 7 7 8 8 8 8 8 9 9 9 8 8 8 8 9 9 9 9
8 8 8 8 8 9 9 9 9 9 9 10 10 11 12 11 10 10 9 8 7 7 6 6 6 6 6 7 7 7 7 8 8 8 8 8 8 8 8 8 8 8 8 8
8 7 7 8 8 8 8 8 8 8 9 9 9 9 12 10 10 10 10 8 7 6 6 5 5 5 6 6 6 6 7 7 7 7 7 7 7 7 7 7 7 7 8 8
7 6 7 7 7 7 7 7 8 8 8 9 9 10 12 11 10 10 9 8 7 6 5 5 5 5 5 5 6 6 6 6 7 7 7 7 7 7 6 7 7 7 7 7
7 7 6 6 7 7 7 8 9 9 9 10 9 9 11 10 9 8 8 7 6 5 5 4 4 4 5 5 5 5 5 5 6 6 6 6 6 6 6 6 6 6 6 6
7 7 6 6 6 7 7 8 9 10 10 11 8 9 11 9 7 6 6 6 5 5 5 4 4 4 4 5 5 5 5 5 5 5 5 5 5 6 5 6 6 6 6 6
7 7 6 5 6 6 7 7 8 8 7 8 10 9 9 8 7 7 6 5 5 5 4 4 4 4 4 4 4 4 4 5 4 4 4 5 5 5 5 5 5 5 5 5
5 5 5 5 5 5 6 6 7 7 8 10 10 10 10 8 8 7 6 5 5 4 4 3 3 3 4 4 4 4 4 4 4 4 4 4 4 4 4 4 4 4 4 4
4 4 5 5 5 6 5 5 6 6 7 9 10 10 9 8 7 6 6 5 4 3 3 3 3 3 3 3 3 3 3 4 3 3 3 4 4 3 3 3 3 3 3 4
3 4 5 5 4 4 5 5 5 6 6 6 8 9 7 6 6 5 5 4 3 3 3 2 2 2 3 3 3 3 3 3 3 3 3 3 3 3 3 3 3 3 3 3
3 3 5 5 4 3 3 4 4 4 5 5 7 9 6 5 5 4 4 3 3 2 2 2 2 2 2 2 2 2 2 2 2 3 3 3 2 3 3 3 2 3 3 2
3 3 4 6 5 4 3 3 3 3 4 5 6 7 6 6 5 4 4 3 2 2 2 2 2 2 2 2 2 2 2 2 2 2 2 2 2 2 2 2 2 2 2 2
3 3 2 3 3 3 3 3 3 3 4 5 6 5 6 5 4 4 3 2 2 2 1 1 1 1 2 2 2 2 2 2 1 1 1 2 2 2 2 2 2 2 2 1
1 2 1 2 2 2 2 3 3 3 3 3 4 4 5 4 3 3 3 2 2 1 1 1 1 1 1 1 1 1 1 1 1 1 1 1 1 1 1 1 1 1 1 1
1 1 2 3 2 2 3 3 3 3 3 3 4 5 4 3 3 2 2 2 1 1 1 1 1 1 1 1 1 1 1 1 1 1 1 1 1 1 0 0 1 0 0 0
0 1 2 2 2 3 5 2 2 3 2 2 3 3 3 2 2 2 2 1 1 1 1 1 1 1 1 0 0 0 0 0 0 0 0 0 0 0 0 0 0 0 -0 -0
0 1 1 2 3 4 4 2 1 2 3 2 2 2 2 1 1 2 2 1 1 1 1 1 1 1 0 0 -0 -0 -0 -0 -0 -0 -0 -0 -0 -0 -0 -0 -0 -0 -0 -1
-1 0 1 1 3 4 5 2 1 2 3 3 1 1 1 1 3 3 1 1 0 0 0 0 0 0 -0 -0 -0 -1 -0 -0 -1 -1 -1 -0 -1 -1 -1 -1 -1 -1 -1 -1
-0 -0 1 1 2 4 3 1 1 3 4 2 1 1 1 1 2 1 1 0 -0 -0 -0 0 0 -0 -0 -1 -1 -1 -1 -1 -1 -1 -1 -1 -1 -1 -1 -1 -1 -1 -1 -2
1 1 0 1 2 3 1 0 2 3 2 1 1 1 0 0 0 0 -0 -0 -1 -1 -0 -0 -0 -1 -1 -1 -1 -1 -1 -1 -1 -1 -1 -1 -1 -2 -1 -1 -1 -2 -2 -2
0 1 2 2 3 2 1 1 1 1 1 1 0 0 0 -0 -0 -0 -1 -1 -1 -1 -1 -1 -1 -1 -1 -1 -1 -1 -1 -1 -1 -1 -2 -2 -2 -2 -2 -2 -2 -2 -2 -3
-0 -2 -0 -0 1 1 0 0 1 1 1 1 0 0 -0 -0 -1 -1 -1 -1 -1 -1 -1 -2 -2 -2 -2 -2 -2 -2 -2 -2 -2 -2 -2 -2 -2 -2 -2 -2 -2 -2 -3 -3
0 -2 -1 -1 1 -0 0 1 1 1 0 0 0 -0 -0 -1 -1 -1 -2 -2 -2 -2 -2 -2 -2 -2 -2 -2 -2 -2 -2 -2 -2 -2 -2 -2 -2 -3 -3 -3 -3 -3 -3 -3
-1 -1 -0 2 1 1 1 1 0 0 -0 -0 -1 -1 -1 -1 -2 -2 -2 -2 -2 -2 -2 -2 -2 -2 -2 -2 -2 -2 -2 -3 -3 -3 -3 -3 -3 -3 -3 -3 -3 -3 -3 -3
Wind_Speed
1 3 4 5 6 4 4 5 6 5 2 4 8 10 8 6 6 6 6 5 5 4 3 1 1 1 1 2 3 4 4 4 4 3 3 3 2 2 2 1 2 2 1 1
3 5 5 4 4 4 5 6 6 4 2 4 7 10 9 7 8 8 7 6 5 4 2 1 1 1 1 1 2 3 4 4 4 3 3 2 2 2 2 1 1 1 1 1
4 1 2 3 4 5 6 7 6 5 3 4 5 8 8 6 6 6 6 5 4 4 3 2 1 1 1 2 2 1 3 4 4 4 3 3 3 2 1 1 1 1 1 1
2 2 3 4 4 5 6 5 5 5 4 3 3 5 6 5 5 5 5 4 4 4 3 2 2 2 2 2 1 1 2 2 2 3 4 5 4 3 2 2 2 2 2 2
2 1 2 4 4 5 3 1 3 4 5 5 5 5 6 3 6 5 4 4 3 3 2 2 2 2 2 2 1 1 1 2 2 2 3 4 3 3 2 2 3 3 3 2
2 2 2 2 2 3 2 2 2 3 4 6 7 7 6 4 5 3 3 3 3 3 2 2 1 1 1 0 1 1 1 2 2 2 2 3 3 3 3 3 3 3 3 3
1 1 1 1 1 2 2 3 3 4 5 6 4 6 6 3 3 4 4 3 3 2 2 2 1 1 0 0 1 1 2 1 1 1 1 2 2 3 3 3 4 4 3 3
2 3 2 1 2 2 5 5 4 4 5 4 4 7 4 1 2 3 3 3 3 2 2 2 1 1 1 1 1 1 2 1 1 1 1 1 2 2 2 3 3 4 3 4
3 2 1 2 2 3 3 5 3 2 3 5 6 5 5 3 2 2 2 2 2 2 2 2 1 1 1 2 2 2 2 2 1 2 2 2 2 2 2 3 3 3 3 3
2 3 3 2 2 2 3 2 3 4 3 6 7 7 5 5 4 2 2 2 2 2 2 2 2 1 1 1 1 2 2 2 2 2 2 2 3 3 3 3 3 4 4 3
2 2 2 2 3 3 3 3 3 3 4 5 6 4 1 3 3 2 2 2 2 3 3 2 2 2 2 2 2 2 2 3 3 3 3 3 3 3 3 3 4 4 4 4
1 2 3 4 2 3 4 5 5 4 4 4 6 5 2 1 1 2 3 3 3 3 3 3 3 2 2 2 2 3 3 3 4 4 3 4 4 4 4 4 4 4 4 4
1 2 2 3 3 1 3 3 3 2 2 5 6 5 1 1 3 3 4 4 4 4 3 2 2 3 3 3 3 3 4 4 4 4 4 4 4 5 4 5 5 5 4 4
2 3 5 7 5 3 5 7 6 5 6 7 11 10 7 6 6 6 5 5 4 3 3 3 3 3 3 4 4 4 4 4 4 4 5 5 5 5 5 5 5 5 5 4
2 3 5 7 7 7 9 10 10 12 11 10 11 12 12 9 8 7 6 5 5 4 4 4 4 4 4 4 4 4 5 4 4 5 5 6 5 5 5 5 5 5 5 5
1 3 3 6 5 7 10 12 13 14 14 15 15 15 10 7 6 7 7 6 6 6 5 5 5 5 5 5 5 5 5 5 5 5 6 5 5 5 5 5 5 5 5 5
3 3 3 4 4 5 9 9 11 9 9 10 12 10 5 6 7 7 7 6 7 7 6 6 6 6 6 6 6 6 6 5 5 6 6 5 5 5 6 5 5 5 5 5
4 3 2 3 2 6 3 0 5 8 8 9 9 9 8 8 8 8 7 7 7 7 7 7 6 6 6 6 5 5 5 5 5 6 6 5 6 6 6 5 6 6 5 5
5 4 3 3 5 8 5 2 2 5 7 6 8 9 8 5 6 6 5 5 6 7 7 7 6 6 5 5 4 4 5 5 5 6 6 6 6 6 5 6 6 5 5 6
3 4 4 4 5 6 2 1 1 3 5 2 5 7 6 4 6 6 4 6 7 7 6 6 5 5 5 4 4 4 5 5 6 6 6 6 6 6 6 6 6 5 6 6
4 4 6 7 7 7 2 1 3 4 3 2 4 6 6 6 7 7 6 7 7 6 6 5 5 4 4 4 4 5 6 6 6 6 6 6 6 6 7 6 6 6 5 6
6 5 6 5 6 7 3 4 5 4 4 4 5 6 7 9 8 8 7 7 6 6 5 4 4 4 4 3 4 5 6 6 6 6 6 6 6 6 5 6 6 6 6 6
7 7 5 8 7 3 5 6 4 3 5 6 7 7 7 8 9 8 7 7 6 6 5 4 4 5 4 4 4 6 6 5 5 6 6 6 6 5 5 5 6 5 5 5
5 4 5 8 10 9 9 8 8 7 8 8 8 8 8 9 9 8 7 6 6 5 5 4 4 5 5 4 5 6 6 5 5 6 6 5 5 5 4 4 4 5 5 5
5 6 6 9 9 9 9 9 9 8 8 8 8 7 8 8 8 7 7 7 6 5 4 4 4 5 6 5 6 5 5 4 5 5 5 5 4 4 4 4 4 5 5 6
7 9 8 9 7 7 7 6 6 7 8 8 7 8 7 7 8 7 7 6 6 5 5 5 5 5 6 5 6 5 4 4 4 4 4 4 3 4 4 4 4 5 6 7
Wind_Direction
144 185 213 221 227 257 230 233 244 252 258 244 247 259 266 260 255 256 256 254 251 256 271 282 278 271 247 221 203 196 180 177 172 168 171 165 159 141 112 76 93 117 118 145
172 224 241 245 225 224 229 241 256 264 270 250 265 270 268 255 251 252 255 254 253 259 267 287 289 263 230 217 210 196 186 181 176 174 174 174 157 150 142 129 110 94 104 134
203 243 223 205 215 226 238 241 253 262 283 248 279 269 250 244 246 254 255 254 253 254 257 259 266 262 247 227 207 178 182 179 174 166 158 153 147 143 154 176 183 197 188 181
235 254 219 223 237 239 247 250 247 250 252 259 263 275 255 249 249 249 251 249 252 254 254 257 264 263 253 246 220 178 147 141 153 166 169 172 178 182 203 212 213 210 206 201
219 239 235 242 249 235 247 271 242 244 248 260 242 252 262 242 254 254 250 241 245 243 242 249 271 273 262 248 211 182 145 132 131 152 169 184 190 196 203 213 219 218 216 222
254 254 263 268 269 223 193 195 215 226 237 250 238 234 262 235 244 266 267 253 255 250 252 261 285 278 267 234 171 178 159 134 129 145 173 183 191 192 204 223 223 222 223 226
277 226 211 254 230 172 191 203 215 212 220 240 202 231 250 247 261 275 283 286 282 257 246 258 277 304 304 274 185 182 174 155 152 156 166 198 213 213 220 241 235 231 230 233
228 234 206 227 239 222 211 223 234 243 247 252 217 236 242 259 293 288 287 298 304 278 251 258 270 276 262 254 226 210 205 195 190 200 225 241 245 241 244 255 257 241 243 247
233 242 293 262 274 240 208 221 256 270 274 263 242 250 260 226 259 294 300 313 308 300 290 279 269 268 263 250 232 226 227 227 229 232 240 244 252 258 262 270 274 267 263 264
276 265 283 293 228 243 267 222 204 216 235 253 252 246 241 222 239 290 321 311 312 313 303 288 281 282 282 268 252 244 236 237 244 247 253 257 253 259 264 269 275 270 270 268
292 247 271 253 230 239 200 211 233 230 253 256 260 248 243 219 241 264 302 310 311 309 303 288 286 284 286 280 263 250 244 247 250 250 252 255 256 257 258 261 272 272 267 263
293 259 262 258 278 300 255 234 220 237 242 251 264 262 75 182 277 284 305 317 318 316 309 301 300 295 288 284 275 263 254 250 252 250 250 251 254 252 254 257 266 267 262 261
232 237 271 258 209 225 250 240 238 264 246 236 248 254 128 324 319 307 300 310 315 318 318 313 306 295 288 281 276 268 260 259 259 252 249 247 248 249 253 258 265 263 257 259
249 236 246 261 285 263 261 254 240 232 242 247 248 263 265 284 300 303 302 303 308 310 308 307 299 290 289 286 281 275 270 266 261 254 250 248 250 251 255 258 262 259 255 255
231 243 257 271 274 259 258 255 242 233 240 249 261 262 271 280 285 285 283 288 293 293 294 295 292 290 290 288 285 280 274 268 261 255 251 252 256 254 255 256 258 255 253 254
220 232 258 272 266 263 265 257 245 242 245 248 262 269 274 280 279 279 282 280 283 291 285 285 286 285 284 281 280 278 276 270 261 256 255 257 255 251 251 258 256 253 254 255
210 198 236 261 298 284 260 244 231 230 231 236 247 262 274 281 275 281 286 284 283 287 288 282 278 276 278 278 275 274 277 273 260 256 256 252 250 249 252 252 249 251 254 253
200 207 231 270 273 246 252 60 227 234 243 240 258 274 271 276 286 284 281 278 287 289 289 287 282 277 277 276 273 271 272 266 260 260 259 255 253 254 254 250 249 252 252 251
213 207 220 236 258 270 265 236 211 229 256 241 253 270 282 300 302 283 277 282 287 290 290 290 286 279 273 272 274 276 272 268 264 264 263 262 257 254 253 252 253 254 255 254
187 206 219 224 249 256 274 96 197 219 264 237 244 261 276 292 286 290 295 293 292 292 292 291 288 284 271 269 271 266 266 265 263 265 265 263 258 253 252 253 253 253 252 254
186 202 217 229 246 263 275 136 169 226 292 325 267 266 261 262 275 302 299 294 290 291 294 292 286 283 283 281 270 264 264 264 270 270 269 265 259 256 255 256 252 251 250 254
199 197 206 210 230 251 155 160 209 274 319 298 287 279 271 273 286 291 290 290 291 294 295 294 289 289 291 286 279 276 274 278 280 274 270 265 261 258 254 253 251 250 248 250
215 215 217 215 237 282 197 227 258 287 284 286 285 283 280 279 282 286 285 285 286 285 287 290 285 289 291 287 278 277 283 289 281 273 269 267 263 256 253 248 246 246 244 247
228 222 235 253 258 260 254 257 264 268 272 279 284 283 279 276 279 280 279 280 280 280 279 281 279 281 286 287 281 278 283 285 276 271 272 270 264 259 254 249 242 241 241 246
227 197 228 252 267 279 258 248 261 271 277 284 287 283 275 273 275 275 276 277 276 279 277 271 269 274 283 289 287 288 284 279 275 275 273 272 266 263 256 252 250 250 251 250
212 209 220 246 244 243 265 267 261 268 275 277 281 286 282 267 266 270 271 272 273 276 273 269 269 273 282 287 287 291 288 276 273 275 275 270 267 266 263 262 269 257 260 270
Height
1505 1504 1502 1502 1504 1502 1502 1501 1499 1500 1504 1505 1500 1497 1496 1498 1499 1498 1497 1497 1497 1497 1497 1496 1496 1496 1496 1496 1496 1497 1498 1499 1501 1502 1503 1505 1506 1507 1508 1509 1510 1511 1511 1512
1504 1503 1504 1505 1506 1506 1504 1502 1500 1502 1504 1503 1499 1495 1493 1494 1495 1495 1494 1494 1495 1495 1494 1493 1493 1493 1493 1493 1494 1494 1495 1496 1498 1499 1501 1502 1504 1504 1506 1507 1507 1508 1508 1509
1500 1504 1506 1506 1505 1504 1503 1502 1501 1502 1504 1503 1501 1490 1488 1489 1491 1492 1492 1492 1493 1492 1492 1491 1491 1491 1491 1491 1491 1491 1492 1494 1496 1497 1498 1500 1501 1502 1503 1503 1504 1504 1505 1506
1504 1506 1506 1505 1504 1504 1501 1503 1503 1504 1501 1497 1500 1489 1481 1484 1487 1488 1489 1490 1490 1490 1490 1489 1489 1489 1489 1489 1489 1489 1490 1491 1493 1494 1495 1496 1497 1498 1499 1500 1501 1501 1502 1503
1504 1506 1506 1504 1504 1505 1503 1505 1505 1504 1501 1500 1498 1496 1478 1483 1482 1482 1485 1487 1488 1488 1488 1487 1487 1487 1487 1487 1487 1487 1488 1489 1490 1491 1492 1493 1494 1495 1496 1497 1498 1498 1499 1500
1506 1508 1507 1506 1506 1505 1506 1506 1505 1503 1501 1498 1492 1490 1477 1477 1479 1480 1483 1485 1486 1486 1486 1486 1485 1485 1484 1485 1485 1485 1486 1486 1487 1488 1489 1490 1491 1492 1493 1493 1494 1495 1495 1496
1504 1505 1507 1507 1505 1505 1505 1502 1497 1494 1493 1486 1491 1489 1478 1478 1481 1482 1483 1484 1484 1484 1484 1484 1483 1482 1482 1482 1482 1482 1483 1484 1485 1485 1486 1487 1488 1489 1489 1490 1491 1491 1491 1491
1502 1500 1505 1506 1505 1503 1503 1500 1495 1488 1481 1478 1490 1483 1475 1481 1483 1483 1483 1483 1483 1482 1482 1481 1481 1480 1481 1481 1480 1480 1481 1482 1483 1483 1483 1484 1484 1485 1486 1486 1487 1487 1487 1487
1501 1501 1506 1507 1506 1504 1501 1499 1499 1497 1496 1489 1478 1478 1478 1480 1481 1481 1482 1482 1482 1481 1480 1480 1479 1479 1479 1479 1479 1479 1479 1480 1480 1481 1481 1481 1481 1482 1482 1482 1482 1482 1483 1483
1508 1506 1506 1506 1506 1506 1504 1501 1500 1496 1490 1477 1471 1472 1469 1475 1477 1479 1480 1480 1480 1480 1479 1478 1478 1478 1477 1477 1477 1477 1477 1477 1478 1478 1479 1478 1478 1479 1479 1478 1478 1478 1479 1479
1510 1508 1506 1505 1503 1500 1504 1504 1501 1496 1492 1481 1472 1468 1472 1475 1477 1478 1479 1479 1479 1478 1477 1477 1476 1476 1475 1475 1475 1475 1475 1475 1475 1475 1475 1476 1476 1476 1476 1475 1475 1475 1475 1475
1510 1507 1502 1503 1505 1506 1503 1500 1500 1496 1495 1492 1480 1473 1477 1477 1478 1478 1478 1478 1477 1477 1476 1475 1474 1474 1473 1473 1473 1473 1473 1473 1472 1472 1472 1472 1472 1472 1472 1472 1472 1472 1471 1471
1510 1508 1499 1495 1503 1507 1504 1502 1503 1502 1498 1492 1483 1473 1478 1479 1478 1478 1478 1477 1476 1475 1474 1473 1473 1472 1472 1471 1471 1470 1470 1470 1469 1469 1469 1468 1468 1468 1468 1468 1468 1468 1468 1468
1508 1507 1502 1494 1491 1499 1501 1502 1502 1502 1495 1487 1481 1473 1475 1477 1477 1478 1477 1476 1475 1474 1473 1472 1471 1470 1470 1469 1468 1467 1467 1466 1466 1465 1465 1464 1464 1464 1464 1465 1465 1464 1464 1464
1507 1505 1504 1502 1500 1500 1498 1497 1498 1497 1491 1487 1477 1477 1474 1476 1477 1476 1475 1474 1473 1472 1471 1470 1469 1468 1467 1466 1465 1464 1463 1463 1462 1462 1461 1461 1460 1460 1460 1460 1460 1460 1460 1460
1507 1505 1505 1501 1499 1499 1496 1492 1491 1491 1489 1485 1482 1478 1475 1476 1476 1474 1473 1472 1471 1470 1469 1467 1467 1466 1464 1463 1462 1461 1460 1459 1458 1458 1457 1457 1457 1456 1456 1456 1456 1456 1456 1456
1505 1505 1501 1493 1497 1495 1486 1482 1484 1484 1483 1481 1476 1473 1475 1474 1473 1471 1471 1470 1468 1467 1466 1464 1464 1463 1461 1460 1458 1457 1456 1455 1454 1454 1453 1453 1452 1452 1452 1452 1452 1451 1451 1451
1504 1503 1500 1495 1496 1489 1475 1481 1480 1480 1478 1478 1476 1473 1473 1472 1471 1469 1467 1467 1466 1464 1462 1461 1460 1459 1457 1456 1454 1453 1452 1451 1450 1449 1449 1448 1448 1448 1448 1447 1447 1447 1447 1447
1501 1501 1498 1495 1487 1476 1474 1479 1479 1479 1473 1474 1474 1472 1472 1470 1468 1465 1464 1464 1463 1461 1459 1457 1456 1455 1453 1452 1450 1449 1448 1447 1446 1445 1444 1444 1443 1443 1443 1443 1443 1443 1443 1442
1501 1501 1498 1494 1486 1475 1469 1476 1477 1478 1470 1470 1470 1470 1469 1469 1465 1461 1462 1461 1459 1457 1456 1454 1452 1451 1449 1448 1446 1445 1444 1443 1442 1441 1440 1440 1439 1438 1438 1438 1438 1438 1438 1438
1498 1497 1495 1490 1484 1471 1471 1475 1476 1473 1467 1468 1467 1467 1467 1466 1464 1462 1459 1458 1456 1454 1452 1451 1449 1447 1445 1444 1443 1441 1440 1439 1438 1437 1436 1435 1435 1434 1434 1433 1433 1433 1433 1433
1487 1487 1489 1487 1482 1471 1471 1473 1471 1467 1466 1466 1465 1465 1464 1462 1460 1458 1456 1454 1452 1450 1449 1447 1445 1443 1442 1441 1440 1438 1437 1436 1434 1433 1432 1431 1431 1430 1429 1429 1428 1428 1428 1427
1483 1480 1476 1476 1470 1467 1467 1467 1466 1466 1465 1463 1462 1461 1460 1458 1456 1454 1452 1451 1449 1447 1445 1444 1442 1440 1439 1438 1436 1435 1433 1432 1431 1429 1428 1427 1427 1426 1425 1425 1424 1423 1423 1423
1478 1479 1477 1473 1465 1464 1464 1463 1463 1462 1461 1460 1459 1457 1456 1454 1452 1450 1449 1447 1445 1444 1442 1441 1439 1437 1436 1435 1433 1432 1430 1428 1427 1426 1424 1423 1422 1422 1421 1421 1420 1419 1419 1418
1471 1474 1472 1468 1462 1461 1458 1459 1459 1458 1457 1456 1455 1454 1452 1450 1448 1447 1445 1443 1442 1440 1439 1437 1436 1434 1433 1431 1430 1428 1426 1424 1423 1422 1421 1420 1419 1418 1417 1417 1416 1415 1415 1414
1465 1465 1464 1457 1456 1457 1454 1454 1455 1454 1453 1452 1451 1449 1447 1446 1444 1443 1441 1440 1438 1437 1435 1434 1432 1431 1430 1428 1426 1425 1423 1421 1420 1418 1417 1416 1416 1415 1414 1413 1412 1411 1411 1410